DO9LL-1 Weather Reports


Display with metric or nautical units.
time (UTC)temp
F
wind
direction
speed
MPH
gust
MPH
rain 1hr
in
rain 24hr
in
rain mn
in
humidity
%
barometer
mb
20260509185225 61 0.0 0.0 0.00 0.00 0.00 59 1015.2
20260509184222 61 0.0 0.0 0.00 0.00 0.00 58 1015.3
20260509183218 62 0.0 0.0 0.00 0.00 0.00 58 1015.1
20260509182235 62 0.0 0.0 0.00 0.00 0.00 58 1015.2
20260509181232 63 0.0 0.0 0.00 0.00 0.00 57 1015.1
20260509180228 64 0.0 0.0 0.00 0.00 0.00 54 1014.9
20260509175225 64 0.0 0.0 0.00 0.00 0.00 52 1015.0
20260509174221 65 0.0 0.0 0.00 0.00 0.00 49 1015.1
20260509173217 65 0.0 0.0 0.00 0.00 0.00 55 1015.1
20260509172234 65 0.0 0.0 0.00 0.00 0.00 51 1015.0
20260509171231 65 208 0.0 1.0 0.00 0.00 0.00 52 1014.9
20260509170228 65 0.0 0.0 0.00 0.00 0.00 52 1015.0
20260509165224 66 213 0.0 1.0 0.00 0.00 0.00 52 1014.9
20260509164221 67 188 0.0 1.0 0.00 0.00 0.00 50 1014.9
20260509163217 68 275 0.0 1.0 0.00 0.00 0.00 44 1015.0
20260509162235 67 240 0.0 1.0 0.00 0.00 0.00 48 1015.0
20260509161230 69 234 2.0 4.0 0.00 0.00 0.00 46 1015.0
20260509160227 70 253 0.0 2.0 0.00 0.00 0.00 43 1015.1
20260509155223 71 185 1.0 2.0 0.00 0.00 0.00 41 1015.2
20260509154220 71 196 0.0 2.0 0.00 0.00 0.00 41 1015.2
20260509153217 71 210 0.0 1.0 0.00 0.00 0.00 42 1015.3
20260509152234 67 198 0.0 1.0 0.00 0.00 0.00 44 1015.6
20260509151229 66 245 0.0 1.0 0.00 0.00 0.00 49 1015.6
20260509150226 66 184 0.0 1.0 0.00 0.00 0.00 49 1015.7
20260509145221 66 263 0.0 1.0 0.00 0.00 0.00 48 1015.7
20260509144218 67 256 0.0 1.0 0.00 0.00 0.00 48 1015.7
20260509143234 66 192 0.0 1.0 0.00 0.00 0.00 50 1015.9
20260509142231 67 278 0.0 1.0 0.00 0.00 0.00 47 1015.9
20260509141227 67 170 1.0 3.0 0.00 0.00 0.00 48 1016.0
20260509140224 69 215 0.0 2.0 0.00 0.00 0.00 46 1016.1
20260509135220 67 182 0.0 2.0 0.00 0.00 0.00 48 1016.2
20260509134217 70 218 1.0 2.0 0.00 0.00 0.00 45 1016.2
20260509133234 70 220 1.0 2.0 0.00 0.00 0.00 46 1016.4
20260509132229 68 184 1.0 2.0 0.00 0.00 0.00 46 1016.6
20260509131226 70 264 1.0 2.0 0.00 0.00 0.00 44 1016.7
20260509130222 69 242 1.0 2.0 0.00 0.00 0.00 47 1016.7
20260509125219 67 211 1.0 2.0 0.00 0.00 0.00 46 1016.9
20260509124235 66 228 2.0 4.0 0.00 0.00 0.00 47 1016.9
20260509123233 69 228 2.0 6.0 0.00 0.00 0.00 46 1017.1
20260509122228 66 225 1.0 2.0 0.00 0.00 0.00 48 1017.1
20260509121224 66 188 1.0 2.0 0.00 0.00 0.00 47 1017.3
20260509120220 67 208 1.0 2.0 0.00 0.00 0.00 48 1017.2
20260509115217 68 242 1.0 2.0 0.00 0.00 0.00 48 1017.3
20260509114233 68 208 1.0 2.0 0.00 0.00 0.00 49 1017.3
20260509113230 66 158 1.0 4.0 0.00 0.00 0.00 49 1017.5
20260509112226 67 244 2.0 3.0 0.00 0.00 0.00 54 1017.6
20260509111222 65 199 1.0 2.0 0.00 0.00 0.00 53 1017.7
20260509110219 64 284 1.0 2.0 0.00 0.00 0.00 53 1017.8
20260509105216 65 221 0.0 3.0 0.00 0.00 0.00 54 1017.8
20260509104233 64 212 1.0 3.0 0.00 0.00 0.00 58 1017.9
20260509103229 65 220 1.0 2.0 0.00 0.00 0.00 57 1018.0
20260509102227 64 205 1.0 2.0 0.00 0.00 0.00 57 1018.1
20260509101222 64 233 1.0 3.0 0.00 0.00 0.00 61 1018.1
20260509100219 62 182 1.0 3.0 0.00 0.00 0.00 60 1018.1
20260509095216 64 247 0.0 1.0 0.00 0.00 0.00 61 1018.2
20260509094233 62 216 0.0 1.0 0.00 0.00 0.00 62 1018.2
20260509093230 62 300 1.0 2.0 0.00 0.00 0.00 62 1018.2
20260509092226 62 171 1.0 2.0 0.00 0.00 0.00 61 1018.3
20260509091223 61 195 0.0 2.0 0.00 0.00 0.00 64 1018.2
20260509090221 60 183 0.0 2.0 0.00 0.00 0.00 68 1018.3
20260509085218 59 338 0.0 1.0 0.00 0.00 0.00 70 1018.3
20260509084235 60 224 0.0 1.0 0.00 0.00 0.00 69 1018.3
20260509083231 59 259 0.0 1.0 0.00 0.00 0.00 73 1018.2
20260509082227 58 244 0.0 1.0 0.00 0.00 0.00 75 1018.4
20260509081224 56 196 0.0 1.0 0.00 0.00 0.00 78 1018.5
20260509080221 54 208 0.0 1.0 0.00 0.00 0.00 81 1018.5
20260509075217 53 184 0.0 2.0 0.00 0.00 0.00 82 1018.6
20260509074233 53 190 0.0 1.0 0.00 0.00 0.00 85 1018.5
20260509073232 52 0.0 0.0 0.00 0.00 0.00 86 1018.4
20260509072227 51 206 0.0 1.0 0.00 0.00 0.00 88 1018.4
20260509071223 50 201 0.0 1.0 0.00 0.00 0.00 88 1018.6
20260509070221 50 178 0.0 1.0 0.00 0.00 0.00 89 1018.6
20260509065218 49 0.0 0.0 0.00 0.00 0.00 90 1018.6
20260509064234 48 220 0.0 1.0 0.00 0.00 0.00 91 1018.5
20260509063230 48 259 0.0 1.0 0.00 0.00 0.00 92 1018.4
20260509062227 47 0.0 0.0 0.00 0.00 0.00 93 1018.3
20260509061224 47 250 0.0 1.0 0.00 0.00 0.00 94 1018.4
20260509060220 46 255 0.0 1.0 0.00 0.00 0.00 95 1018.4
20260509055217 46 0.0 0.0 0.00 0.00 0.00 96 1018.3
20260509054234 45 0.0 0.0 0.00 0.00 0.00 96 1018.2
20260509053230 45 0.0 0.0 0.00 0.00 0.00 96 1018.1
20260509052227 45 0.0 0.0 0.00 0.00 0.00 96 1018.1
20260509051223 44 0.0 0.0 0.00 0.00 0.00 96 1018.1
20260509050220 43 0.0 0.0 0.00 0.00 0.00 96 1018.1
20260509045216 42 0.0 0.0 0.00 0.00 0.00 95 1018.1
20260509044233 42 0.0 0.0 0.00 0.00 0.00 95 1018.1
20260509043230 42 0.0 0.0 0.00 0.00 0.00 95 1018.2
20260509042232 42 0.0 0.0 0.00 0.00 0.00 95 1018.1
20260509041223 42 0.0 0.0 0.00 0.00 0.00 95 1018.1
20260509040220 42 0.0 0.0 0.00 0.00 0.00 95 1018.1
20260509035216 42 0.0 0.0 0.00 0.00 0.00 95 1018.2
20260509034233 42 0.0 0.0 0.00 0.00 0.00 94 1018.2
20260509033230 43 0.0 0.0 0.00 0.00 0.00 94 1018.1
20260509032226 43 0.0 0.0 0.00 0.00 0.00 94 1018.2
20260509031223 43 0.0 0.0 0.00 0.00 0.00 94 1018.5
20260509030221 43 0.0 0.0 0.00 0.00 0.00 94 1018.5
20260509025217 43 0.0 0.0 0.00 0.00 0.00 94 1018.5
20260509024234 43 0.0 0.0 0.00 0.00 0.00 94 1018.6
20260509023230 43 0.0 0.0 0.00 0.00 0.00 94 1018.5
20260509022227 44 0.0 0.0 0.00 0.00 0.00 93 1018.4
20260509021224 44 0.0 0.0 0.00 0.00 0.00 93 1018.4
20260509020224 44 0.0 0.0 0.00 0.00 0.00 92 1018.4
20260509015218 44 0.0 0.0 0.00 0.00 0.00 92 1018.4
20260509014235 45 0.0 0.0 0.00 0.00 0.00 92 1018.4
20260509013232 45 0.0 0.0 0.00 0.00 0.00 92 1018.5
20260509012228 45 0.0 0.0 0.00 0.00 0.00 91 1018.5
20260509011224 45 0.0 0.0 0.00 0.00 0.00 91 1018.6
20260509010221 45 0.0 0.0 0.00 0.00 0.00 91 1018.6
20260509005217 46 0.0 0.0 0.00 0.00 0.00 91 1018.6
20260509004234 46 0.0 0.0 0.00 0.00 0.00 91 1018.6
20260509003230 45 0.0 0.0 0.00 0.00 0.00 90 1018.4
20260509002227 46 0.0 0.0 0.00 0.00 0.00 90 1018.5
20260509001226 46 0.0 0.0 0.00 0.00 0.00 90 1018.6
20260509000221 46 0.0 0.0 0.00 0.00 0.00 90 1018.6
20260508235216 46 226 0.0 1.0 0.00 0.00 0.00 89 1018.5
20260508234233 46 0.0 0.0 0.00 0.00 0.00 88 1018.6
20260508233230 47 246 0.0 1.0 0.00 0.00 0.00 87 1018.6
20260508232227 47 0.0 0.0 0.00 0.00 0.00 87 1018.7
20260508231223 48 0.0 0.0 0.00 0.00 0.00 86 1018.7
20260508230220 48 243 0.0 1.0 0.00 0.00 0.00 86 1018.6
20260508225217 48 254 0.0 1.0 0.00 0.00 0.00 85 1018.5
20260508224235 49 0.0 0.0 0.00 0.00 0.00 84 1018.6
20260508223230 49 286 0.0 1.0 0.00 0.00 0.00 84 1018.6
20260508222227 49 267 0.0 1.0 0.00 0.00 0.00 83 1018.6
20260508221223 49 283 0.0 1.0 0.00 0.00 0.00 83 1018.7
20260508220220 49 263 0.0 1.0 0.00 0.00 0.00 83 1018.7
20260508215217 49 247 1.0 1.0 0.00 0.00 0.00 83 1018.7
20260508214233 49 250 1.0 2.0 0.00 0.00 0.00 83 1018.6
20260508213229 49 0.0 0.0 0.00 0.00 0.00 83 1018.7
20260508212226 49 237 0.0 1.0 0.00 0.00 0.00 83 1018.7
20260508211222 50 236 0.0 1.0 0.00 0.00 0.00 81 1018.7
20260508210219 50 0.0 0.0 0.00 0.00 0.00 80 1018.6
20260508205216 50 0.0 0.0 0.00 0.00 0.00 80 1018.6
20260508204233 50 0.0 0.0 0.00 0.00 0.00 80 1018.6
20260508203229 50 0.0 0.0 0.00 0.00 0.00 80 1018.6
20260508202226 50 0.0 0.0 0.00 0.00 0.00 80 1018.5
20260508201223 51 0.0 0.0 0.00 0.00 0.00 77 1018.6
20260508200220 52 0.0 0.0 0.00 0.00 0.00 76 1018.5
20260508195216 52 0.0 0.0 0.00 0.00 0.00 77 1018.5
20260508194233 52 0.0 0.0 0.00 0.00 0.00 76 1018.4
20260508193230 52 0.0 0.0 0.00 0.00 0.00 76 1018.4
20260508192227 52 0.0 0.0 0.00 0.00 0.00 76 1018.2
20260508191223 53 0.0 0.0 0.00 0.00 0.00 74 1018.1
20260508190222 54 218 0.0 1.0 0.00 0.00 0.00 72 1017.8